Regional Weather Roundup
Issued by NWS Jackson, KY

Home | Current Version | Previous Version | Graphics & Text | Print | Product List | Glossary On
Versions: 1 2 3 4 5 6 7 8 9 10 11 12 13 14 15 16 17 18 19 20 21 22 23 24 25 26 27 28 29 30 31 32 33 34 35 36 37 38 39 40 41 42 43 44 45 46 47 48 49 50
000
ASUS43 KJKL 222005
RWRJKL

EAST KENTUCKY HOURLY WEATHER ROUNDUP
NATIONAL WEATHER SERVICE JACKSON KY
400 PM EDT WED OCT 22 2014

NOTE: "FAIR" INDICATES FEW OR NO CLOUDS BELOW 12,000 FEET WITH
NO SIGNIFICANT WEATHER AND/OR OBSTRUCTIONS TO VISIBILITY.

* THESE REPORTS ARE NOT UNDER NWS QUALITY CONTROL AND MAY NOT
  REPORT WEATHER SUCH AS PRECIPITATION AND FOG.

KYZ079-080-083-085-087-088-110-112-115-119-120-222100
...EASTERN KENTUCKY...

CITY           SKY/WX    TMP DP  RH WIND       PRES   REMARKS
JACKSON        CLOUDY    49  40  71 CALM      30.23S
LONDON         CLOUDY    49  40  71 NE3       30.25F
SOMERSET*      PTSUNNY   50  39  66 E6        30.26S
MONTICELLO*    SUNNY     59  43  55 N8        30.25R
WILLIAMSBURG*    N/A    N/A N/A N/A CALM        N/A
MIDDLESBORO*   CLOUDY    50  41  70 NE7       30.24S
HARLAN APT*    CLOUDY    46  37  71 N5        30.23S
BLACK MTN*       N/A     36  36 100 N6          N/A  WCI  31
PIKEVILLE APT* CLOUDY    46  43  87 CALM      30.22S
BIG SANDY*     CLOUDY    50  43  77 CALM      30.22S
MOREHEAD APT*  CLOUDY    52  41  66 N7        30.26S
$$

KYZ035-036-041-042-044-050-067-078-099-222100
...CENTRAL KENTUCKY...

CITY           SKY/WX    TMP DP  RH WIND       PRES   REMARKS
MT STERLING*   CLOUDY    52  41  66 N3        30.26S
FLEMING/MASON* CLOUDY    51  41  69 NE8       30.26S
DANVILLE*      CLOUDY    50  41  71 E3        30.27S
RICHMOND*      CLOUDY    48  39  71 NE3       30.25F
LEXINGTON      CLOUDY    56  42  59 NE8       30.25S
FRANKFORT      MOSUNNY   58  39  49 N5        30.24F
$$

KYZ091>093-OHZ055-061-077-WVZ005-015-034-035-042-222100
...SOUTHERN OHIO/WEST VIRGINIA...

CITY           SKY/WX    TMP DP  RH WIND       PRES   REMARKS
COVINGTON      PTSUNNY   53  39  59 N8        30.27S
COLUMBUS       CLOUDY    50  41  71 N10       30.25S
DAYTON         CLOUDY    52  41  66 N10       30.28F
WILMINGTON     CLOUDY    50  40  68 N10       30.25F
HUNTINGTON     CLOUDY    51  43  74 NW7       30.22S
CHARLESTON     CLOUDY    51  43  74 NW9       30.19S
PINEVILLE*     DRIZZLE   47  46  96 MISG      30.23S
BECKLEY        LGT RAIN  43  41  93 N7        30.16S FOG
BLUEFIELD      CLOUDY    45  39  79 VRB5      30.15S
$$

VAZ002-007-008-TNZ017-027-036-066-071-222100
...SOUTHWEST VIRGINIA/EAST TENNESSEE...

CITY           SKY/WX    TMP DP  RH WIND       PRES   REMARKS
WISE*          CLOUDY    43  43 100 N9        30.21R
JONESVILLE*    PTCLDY    48  39  71 CALM      30.25S
ABINGDON*      CLOUDY    48  41  75 N8G16     30.18S
BRISTOL        PTSUNNY   50  40  68 N10       30.20S
KNOXVILLE      MOSUNNY   59  40  49 NE14G20   30.16F
OAK RIDGE      SUNNY     62  40  44 E9        30.18F
CROSSVILLE     SUNNY     60  38  43 N10       30.19S
NASHVILLE      SUNNY     64  41  42 N8        30.21F
$$

...KEY TO REMARKS...
VSB - VISIBILITY IN MILES
WCI - WIND CHILL INDEX
HX  - HEAT INDEX

$$



USA.gov is the U.S. government's official web portal to all federal, state and local government web resources and services.